Location: Asheville, NC
(35.6000°N, 82.5500°W)
Time: 02:20:16

Hubble Space Telescope - Pass Details

Date: 09 March 2018
Orbit: 537 x 541 km, 28.5° (Epoch: 16 March)

Event Time Altitude Azimuth Distance (km) Brightness Sun altitude
Rises 19:49:18 0° 217° (SW) 2,667 4.7 -16.4°
Reaches altitude 10° 19:52:32 10° 190° (S) 1,777 3.4 -17.0°
Enters shadow 19:54:31 14° 161° (SSE) 1,565 2.9 -17.4°
